| time (UTC) | temp F | wind direction | speed MPH | gust MPH | rain 1hr in | rain 24hr in | rain mn in | humidity % | barometer mb |
| 20260901190325 | 94 | 269 | 4.0 | 7.0 | 0.00 | 0.63 | 0.01 | 62 | 1013.5 |
| 20260901185829 | 94 | 258 | 4.0 | 7.0 | 0.00 | 0.63 | 0.01 | 62 | 1013.7 |
| 20260901185332 | 94 | 248 | 3.0 | 12.0 | 0.00 | 0.63 | 0.01 | 63 | 1013.8 |
| 20260901184839 | 94 | 251 | 5.0 | 12.0 | 0.00 | 0.63 | 0.01 | 62 | 1013.9 |
| 20260901184327 | 94 | 225 | 6.0 | 12.0 | 0.00 | 0.63 | 0.01 | 62 | 1013.9 |
| 20260901183832 | 94 | 257 | 6.0 | 10.0 | 0.00 | 0.63 | 0.01 | 64 | 1013.8 |
| 20260901183336 | 94 | 264 | 6.0 | 10.0 | 0.00 | 0.63 | 0.01 | 63 | 1013.9 |
| 20260901182900 | 94 | 255 | 7.0 | 10.0 | 0.00 | 0.63 | 0.01 | 64 | 1013.9 |
| 20260901182321 | 93 | 276 | 4.0 | 12.0 | 0.00 | 0.63 | 0.01 | 62 | 1014.0 |
| 20260901181829 | 94 | 262 | 5.0 | 12.0 | 0.00 | 0.63 | 0.01 | 63 | 1014.0 |
| 20260901181334 | 94 | 227 | 3.0 | 10.0 | 0.00 | 0.63 | 0.01 | 62 | 1014.1 |
| 20260901180857 | 94 | 310 | 3.0 | 13.0 | 0.00 | 0.63 | 0.01 | 65 | 1014.2 |
| 20260901180324 | 94 | 284 | 6.0 | 13.0 | 0.00 | 0.63 | 0.01 | 62 | 1014.3 |
| 20260901175847 | 94 | 265 | 4.0 | 8.0 | 0.00 | 0.63 | 0.01 | 64 | 1014.2 |
| 20260901175333 | 93 | 257 | 3.0 | 13.0 | 0.00 | 0.63 | 0.01 | 64 | 1014.3 |
| 20260901174857 | 93 | 236 | 4.0 | 13.0 | 0.00 | 0.63 | 0.01 | 65 | 1014.3 |
| 20260901174401 | 92 | 247 | 4.0 | 6.0 | 0.00 | 0.63 | 0.01 | 71 | 1014.3 |
| 20260901173829 | 92 | 259 | 3.0 | 7.0 | 0.00 | 0.63 | 0.01 | 69 | 1014.2 |
| 20260901173333 | 92 | 279 | 3.0 | 9.0 | 0.00 | 0.63 | 0.01 | 70 | 1014.1 |
| 20260901172838 | 92 | 280 | 3.0 | 12.0 | 0.00 | 0.63 | 0.01 | 66 | 1014.2 |
| 20260901172402 | 92 | 286 | 6.0 | 12.0 | 0.00 | 0.63 | 0.01 | 67 | 1014.2 |
| 20260901171825 | 92 | 238 | 3.0 | 6.0 | 0.00 | 0.63 | 0.01 | 71 | 1014.2 |
| 20260901171330 | 92 | 274 | 2.0 | 6.0 | 0.00 | 0.63 | 0.01 | 73 | 1014.3 |
| 20260901170854 | 92 | 284 | 3.0 | 6.0 | 0.00 | 0.63 | 0.01 | 73 | 1014.3 |
| 20260901170338 | 91 | 230 | 2.0 | 6.0 | 0.00 | 0.63 | 0.01 | 72 | 1014.2 |
| 20260901165842 | 91 | 232 | 2.0 | 6.0 | 0.00 | 0.63 | 0.01 | 73 | 1014.4 |
| 20260901165346 | 91 | 269 | 2.0 | 6.0 | 0.00 | 0.63 | 0.01 | 71 | 1014.6 |
| 20260901164849 | 90 | 225 | 3.0 | 6.0 | 0.00 | 0.63 | 0.01 | 74 | 1014.6 |
| 20260901164333 | 90 | 207 | 3.0 | 7.0 | 0.00 | 0.63 | 0.01 | 73 | 1014.7 |
| 20260901163838 | 90 | 224 | 4.0 | 7.0 | 0.00 | 0.63 | 0.01 | 75 | 1014.8 |
| 20260901163342 | 89 | 237 | 1.0 | 4.0 | 0.00 | 0.63 | 0.01 | 74 | 1014.8 |
| 20260901162831 | 89 | 282 | 2.0 | 5.0 | 0.00 | 0.63 | 0.01 | 74 | 1014.8 |
| 20260901162334 | 89 | 269 | 2.0 | 5.0 | 0.00 | 0.63 | 0.01 | 76 | 1015.0 |
| 20260901161821 | 88 | 265 | 1.0 | 5.0 | 0.00 | 0.63 | 0.01 | 78 | 1014.9 |
| 20260901161328 | 87 | 201 | 2.0 | 4.0 | 0.00 | 0.63 | 0.01 | 77 | 1014.9 |
| 20260901160833 | 87 | 201 | 2.0 | 4.0 | 0.00 | 0.63 | 0.01 | 78 | 1015.0 |
| 20260901160356 | 86 | 231 | 1.0 | 3.0 | 0.00 | 0.63 | 0.01 | 78 | 1014.9 |
| 20260901155822 | 86 | 231 | 1.0 | 5.0 | 0.00 | 0.63 | 0.01 | 77 | 1015.0 |
| 20260901155349 | 86 | 192 | 2.0 | 6.0 | 0.00 | 0.63 | 0.01 | 76 | 1015.3 |
| 20260901154852 | 87 | 192 | 3.0 | 6.0 | 0.00 | 0.63 | 0.01 | 75 | 1015.4 |
| 20260901154336 | 87 | 195 | 2.0 | 5.0 | 0.00 | 0.63 | 0.01 | 76 | 1015.4 |
| 20260901153840 | 88 | 225 | 2.0 | 10.0 | 0.00 | 0.63 | 0.01 | 75 | 1015.4 |
| 20260901153328 | 88 | 267 | 2.0 | 10.0 | 0.00 | 0.63 | 0.01 | 74 | 1015.3 |
| 20260901152833 | 88 | 248 | 2.0 | 7.0 | 0.00 | 0.63 | 0.01 | 78 | 1015.4 |
| 20260901152340 | 88 | 227 | 2.0 | 5.0 | 0.00 | 0.63 | 0.01 | 75 | 1015.5 |
| 20260901151825 | 87 | 271 | 3.0 | 6.0 | 0.00 | 0.63 | 0.01 | 79 | 1015.5 |
| 20260901151328 | 87 | 230 | 1.0 | 9.0 | 0.00 | 0.63 | 0.01 | 77 | 1015.4 |
| 20260901150835 | 87 | 177 | 2.0 | 9.0 | 0.00 | 0.63 | 0.01 | 78 | 1015.3 |
| 20260901150321 | 86 | 205 | 4.0 | 7.0 | 0.00 | 0.63 | 0.01 | 78 | 1015.4 |
| 20260901145829 | 85 | 147 | 4.0 | 7.0 | 0.00 | 0.63 | 0.01 | 81 | 1015.4 |
| 20260901145353 | 85 | 198 | 2.0 | 7.0 | 0.00 | 0.63 | 0.01 | 81 | 1015.6 |
| 20260901144856 | 84 | 207 | 3.0 | 7.0 | 0.00 | 0.63 | 0.01 | 82 | 1015.6 |
| 20260901144339 | 83 | 194 | 2.0 | 4.0 | 0.00 | 0.63 | 0.01 | 83 | 1015.6 |
| 20260901143824 | 83 | 221 | 1.0 | 4.0 | 0.00 | 0.63 | 0.01 | 83 | 1015.6 |
| 20260901143329 | 83 | 196 | 1.0 | 5.0 | 0.00 | 0.63 | 0.01 | 82 | 1015.6 |
| 20260901142833 | 83 | 192 | 1.0 | 5.0 | 0.00 | 0.63 | 0.01 | 83 | 1015.6 |
| 20260901142320 | 83 | 188 | 3.0 | 7.0 | 0.00 | 0.63 | 0.01 | 83 | 1015.6 |
| 20260901141827 | 83 | 194 | 3.0 | 7.0 | 0.00 | 0.63 | 0.01 | 84 | 1015.6 |
| 20260901141335 | 82 | 208 | 2.0 | 9.0 | 0.00 | 0.63 | 0.01 | 85 | 1015.6 |
| 20260901140839 | 82 | 184 | 5.0 | 9.0 | 0.00 | 0.63 | 0.01 | 85 | 1015.6 |
| 20260901140343 | 82 | 186 | 3.0 | 6.0 | 0.00 | 0.63 | 0.01 | 88 | 1015.6 |
| 20260901135830 | 81 | 217 | 2.0 | 4.0 | 0.00 | 0.63 | 0.01 | 89 | 1015.9 |
| 20260901135333 | 80 | 222 | 2.0 | 4.0 | 0.00 | 0.63 | 0.01 | 90 | 1015.8 |
| 20260901134858 | 80 | 196 | 1.0 | 4.0 | 0.00 | 0.63 | 0.01 | 91 | 1015.8 |
| 20260901134340 | 79 | 136 | 1.0 | 5.0 | 0.00 | 0.63 | 0.01 | 92 | 1015.9 |
| 20260901133828 | 79 | 197 | 2.0 | 5.0 | 0.00 | 0.63 | 0.01 | 92 | 1015.9 |
| 20260901133333 | 78 | 189 | 2.0 | 5.0 | 0.00 | 0.63 | 0.01 | 92 | 1015.9 |
| 20260901132837 | 78 | 207 | 1.0 | 4.0 | 0.00 | 0.63 | 0.01 | 93 | 1016.0 |
| 20260901132325 | 79 | 188 | 2.0 | 3.0 | 0.00 | 0.63 | 0.01 | 94 | 1015.9 |
| 20260901131829 | 78 | 188 | 0.0 | 3.0 | 0.00 | 0.63 | 0.01 | 94 | 1015.9 |
| 20260901131354 | 78 | 188 | 0.0 | 3.0 | 0.00 | 0.63 | 0.01 | 94 | 1016.0 |
| 20260901130837 | 78 | 188 | 1.0 | 4.0 | 0.00 | 0.63 | 0.01 | 94 | 1016.0 |
| 20260901130402 | 77 | 188 | 2.0 | 5.0 | 0.00 | 0.63 | 0.01 | 95 | 1016.0 |
| 20260901125825 | 77 | 190 | 3.0 | 6.0 | 0.00 | 0.63 | 0.01 | 95 | 1016.2 |
| 20260901125329 | 77 | 189 | 4.0 | 6.0 | 0.00 | 0.63 | 0.01 | 96 | 1016.2 |
| 20260901124854 | 77 | 177 | 3.0 | 5.0 | 0.00 | 0.63 | 0.01 | 96 | 1016.2 |
| 20260901124337 | 77 | 196 | 1.0 | 3.0 | 0.00 | 0.63 | 0.01 | 96 | 1016.3 |
| 20260901123822 | 76 | 196 | 1.0 | 4.0 | 0.00 | 0.63 | 0.01 | 96 | 1016.3 |
| 20260901123329 | 76 | 196 | 3.0 | 5.0 | 0.00 | 0.63 | 0.01 | 96 | 1016.4 |
| 20260901122834 | 76 | 192 | 3.0 | 5.0 | 0.00 | 0.63 | 0.01 | 96 | 1016.5 |
| 20260901122338 | 76 | 182 | 2.0 | 4.0 | 0.00 | 0.63 | 0.01 | 96 | 1016.4 |
| 20260901121826 | 76 | 184 | 2.0 | 4.0 | 0.00 | 0.63 | 0.01 | 96 | 1016.4 |
| 20260901121350 | 76 | 184 | 1.0 | 4.0 | 0.00 | 0.63 | 0.01 | 96 | 1016.2 |
| 20260901120836 | 76 | 184 | 2.0 | 3.0 | 0.01 | 0.63 | 0.01 | 96 | 1016.4 |
| 20260901120324 | 75 | 184 | 2.0 | 4.0 | 0.01 | 0.63 | 0.01 | 96 | 1016.3 |
| 20260901115829 | 75 | 188 | 2.0 | 4.0 | 0.01 | 0.63 | 0.01 | 96 | 1016.2 |
| 20260901115332 | 75 | 185 | 2.0 | 4.0 | 0.01 | 0.63 | 0.01 | 96 | 1016.3 |
| 20260901114837 | 75 | 185 | 1.0 | 2.0 | 0.01 | 0.63 | 0.01 | 96 | 1016.2 |
| 20260901114341 | 75 | 185 | 0.0 | 1.0 | 0.01 | 0.63 | 0.01 | 96 | 1016.2 |
| 20260901113826 | 75 | 185 | 0.0 | 3.0 | 0.01 | 0.63 | 0.01 | 96 | 1016.1 |
| 20260901113329 | 75 | 185 | 0.0 | 3.0 | 0.01 | 0.63 | 0.01 | 96 | 1016.2 |
| 20260901112836 | 75 | 185 | 1.0 | 2.0 | 0.01 | 0.63 | 0.01 | 96 | 1016.2 |
| 20260901112325 | 75 | 185 | 0.0 | 1.0 | 0.01 | 0.63 | 0.01 | 96 | 1016.2 |
| 20260901111833 | 75 | 185 | 0.0 | 3.0 | 0.01 | 0.63 | 0.01 | 96 | 1016.0 |
| 20260901111338 | 75 | 185 | 1.0 | 3.0 | 0.01 | 0.63 | 0.01 | 96 | 1015.7 |
| 20260901110822 | 75 | 124 | 0.0 | 2.0 | 0.00 | 0.62 | 0.00 | 96 | 1015.7 |
| 20260901110330 | 74 | 124 | 0.0 | 0.0 | 0.00 | 0.62 | 0.00 | 96 | 1015.8 |
| 20260901105834 | 74 | 124 | 0.0 | 1.0 | 0.00 | 0.62 | 0.00 | 96 | 1015.9 |
| 20260901105337 | 74 | 124 | 0.0 | 1.0 | 0.00 | 0.62 | 0.00 | 96 | 1015.6 |
| 20260901104904 | 74 | 124 | 0.0 | 2.0 | 0.00 | 0.62 | 0.00 | 96 | 1015.7 |
| 20260901104328 | 75 | 124 | 0.0 | 2.0 | 0.00 | 0.62 | 0.00 | 96 | 1015.6 |
| 20260901103831 | 75 | 124 | 0.0 | 1.0 | 0.00 | 0.62 | 0.00 | 96 | 1015.6 |
| 20260901103339 | 75 | 124 | 1.0 | 1.0 | 0.00 | 0.62 | 0.00 | 96 | 1015.6 |
| 20260901102848 | 75 | 124 | 0.0 | 0.0 | 0.00 | 0.62 | 0.00 | 96 | 1015.4 |
| 20260901102330 | 75 | 124 | 0.0 | 1.0 | 0.00 | 0.62 | 0.00 | 96 | 1015.5 |
| 20260901101835 | 75 | 124 | 0.0 | 1.0 | 0.00 | 0.62 | 0.00 | 96 | 1015.5 |
| 20260901101339 | 75 | 124 | 0.0 | 1.0 | 0.00 | 0.62 | 0.00 | 96 | 1015.5 |
| 20260901100827 | 75 | 124 | 0.0 | 1.0 | 0.00 | 0.62 | 0.00 | 96 | 1015.4 |
| 20260901100332 | 75 | 124 | 0.0 | 1.0 | 0.00 | 0.62 | 0.00 | 96 | 1015.5 |
| 20260901095836 | 75 | 124 | 0.0 | 1.0 | 0.00 | 0.62 | 0.00 | 96 | 1015.5 |
| 20260901095359 | 75 | 124 | 0.0 | 1.0 | 0.00 | 0.62 | 0.00 | 96 | 1015.6 |
| 20260901094824 | 75 | 124 | 0.0 | 1.0 | 0.00 | 0.62 | 0.00 | 96 | 1015.5 |
| 20260901094332 | 75 | 138 | 0.0 | 0.0 | 0.00 | 0.62 | 0.00 | 96 | 1015.5 |
| 20260901093836 | 75 | 138 | 0.0 | 0.0 | 0.00 | 0.62 | 0.00 | 96 | 1015.6 |
| 20260901093325 | 75 | 138 | 0.0 | 0.0 | 0.00 | 0.62 | 0.00 | 96 | 1015.7 |
| 20260901092830 | 75 | 138 | 0.0 | 0.0 | 0.00 | 0.62 | 0.00 | 96 | 1015.7 |
| 20260901092332 | 75 | 138 | 0.0 | 0.0 | 0.00 | 0.62 | 0.00 | 96 | 1015.7 |
| 20260901091840 | 75 | 138 | 0.0 | 0.0 | 0.00 | 0.62 | 0.00 | 96 | 1015.6 |
| 20260901091404 | 75 | 138 | 0.0 | 0.0 | 0.00 | 0.62 | 0.00 | 96 | 1015.7 |
| 20260901090827 | 75 | 138 | 0.0 | 0.0 | 0.00 | 0.62 | 0.00 | 96 | 1015.6 |
| 20260901090354 | 75 | 138 | 0.0 | 0.0 | 0.00 | 0.62 | 0.00 | 96 | 1015.7 |
| 20260901085841 | 75 | 138 | 0.0 | 0.0 | 0.00 | 0.62 | 0.00 | 96 | 1015.7 |
| 20260901085404 | 76 | 138 | 0.0 | 0.0 | 0.00 | 0.62 | 0.00 | 96 | 1015.4 |
| 20260901084828 | 76 | 138 | 0.0 | 0.0 | 0.00 | 0.62 | 0.00 | 96 | 1015.5 |
| 20260901084331 | 75 | 138 | 0.0 | 0.0 | 0.00 | 0.62 | 0.00 | 96 | 1015.4 |
| 20260901083839 | 75 | 138 | 0.0 | 0.0 | 0.00 | 0.62 | 0.00 | 96 | 1015.4 |
| 20260901083344 | 75 | 138 | 0.0 | 0.0 | 0.00 | 0.62 | 0.00 | 96 | 1015.5 |
| 20260901082832 | 75 | 138 | 0.0 | 0.0 | 0.00 | 0.62 | 0.00 | 96 | 1015.5 |
| 20260901082336 | 76 | 138 | 0.0 | 0.0 | 0.00 | 0.62 | 0.00 | 96 | 1015.4 |
| 20260901081840 | 76 | 138 | 0.0 | 0.0 | 0.00 | 0.62 | 0.00 | 96 | 1015.6 |
| 20260901081325 | 76 | 138 | 0.0 | 0.0 | 0.00 | 0.62 | 0.00 | 96 | 1015.6 |
| 20260901080830 | 76 | 138 | 0.0 | 0.0 | 0.00 | 0.62 | 0.00 | 96 | 1015.7 |
| 20260901080334 | 76 | 138 | 0.0 | 0.0 | 0.00 | 0.62 | 0.00 | 96 | 1015.7 |
| 20260901075839 | 76 | 138 | 0.0 | 0.0 | 0.00 | 0.62 | 0.00 | 96 | 1015.7 |
| 20260901075342 | 76 | 138 | 0.0 | 0.0 | 0.00 | 0.62 | 0.00 | 96 | 1015.8 |
| 20260901074827 | 75 | 138 | 0.0 | 0.0 | 0.00 | 0.62 | 0.00 | 96 | 1015.9 |
| 20260901074331 | 75 | 138 | 0.0 | 0.0 | 0.00 | 0.62 | 0.00 | 96 | 1015.8 |
| 20260901073856 | 75 | 138 | 0.0 | 0.0 | 0.00 | 0.62 | 0.00 | 96 | 1015.9 |
| 20260901073322 | 75 | 138 | 0.0 | 0.0 | 0.00 | 0.62 | 0.00 | 96 | 1015.7 |
| 20260901072829 | 75 | 138 | 0.0 | 0.0 | 0.00 | 0.62 | 0.00 | 96 | 1015.6 |
| 20260901072336 | 75 | 138 | 0.0 | 0.0 | 0.00 | 0.62 | 0.00 | 96 | 1015.6 |
| 20260901071840 | 75 | 138 | 0.0 | 0.0 | 0.00 | 0.62 | 0.00 | 96 | 1015.4 |
| 20260901071325 | 75 | 138 | 0.0 | 0.0 | 0.00 | 0.62 | 0.00 | 96 | 1015.5 |
| 20260901070829 | 75 | 138 | 0.0 | 0.0 | 0.00 | 0.62 | 0.00 | 96 | 1015.6 |
| 20260901070334 | 75 | 138 | 0.0 | 0.0 | 0.00 | 0.62 | 0.00 | 96 | 1015.7 |
| 20260901065858 | 75 | 138 | 0.0 | 0.0 | 0.00 | 0.62 | 0.00 | 96 | 1015.8 |
| 20260901065401 | 75 | 138 | 0.0 | 0.0 | 0.00 | 0.62 | 0.00 | 96 | 1015.8 |
| 20260901064843 | 75 | 138 | 0.0 | 0.0 | 0.00 | 0.62 | 0.00 | 96 | 1015.8 |
| 20260901064330 | 75 | 138 | 0.0 | 0.0 | 0.00 | 0.62 | 0.00 | 96 | 1015.8 |
| 20260901063855 | 75 | 138 | 0.0 | 0.0 | 0.00 | 0.62 | 0.00 | 96 | 1015.8 |
| 20260901063338 | 75 | 138 | 0.0 | 0.0 | 0.00 | 0.62 | 0.00 | 96 | 1015.8 |
| 20260901062843 | 75 | 138 | 0.0 | 0.0 | 0.00 | 0.62 | 0.00 | 96 | 1015.9 |
| 20260901062331 | 75 | 138 | 0.0 | 0.0 | 0.00 | 0.62 | 0.00 | 96 | 1016.0 |
| 20260901061835 | 75 | 138 | 0.0 | 0.0 | 0.00 | 0.62 | 0.00 | 96 | 1016.1 |
| 20260901061338 | 75 | 138 | 0.0 | 0.0 | 0.00 | 0.62 | 0.00 | 96 | 1016.1 |
| 20260901060825 | 75 | 138 | 0.0 | 0.0 | 0.00 | 0.62 | 0.00 | 96 | 1016.2 |
| 20260901060332 | 74 | 138 | 0.0 | 0.0 | 0.00 | 0.62 | 0.00 | 95 | 1016.4 |
| 20260901055839 | 74 | 138 | 0.0 | 0.0 | 0.00 | 0.62 | 0.00 | 95 | 1016.4 |
| 20260901055343 | 74 | 138 | 0.0 | 0.0 | 0.00 | 0.62 | 0.00 | 95 | 1016.4 |
| 20260901054827 | 74 | 138 | 0.0 | 0.0 | 0.00 | 0.62 | 0.00 | 95 | 1016.5 |
| 20260901054332 | 74 | 138 | 0.0 | 0.0 | 0.00 | 0.62 | 0.00 | 95 | 1016.4 |
| 20260901053837 | 74 | 138 | 0.0 | 0.0 | 0.00 | 0.62 | 0.00 | 95 | 1016.5 |
| 20260901053325 | 75 | 138 | 0.0 | 0.0 | 0.00 | 0.62 | 0.00 | 95 | 1016.6 |
| 20260901052850 | 75 | 138 | 0.0 | 0.0 | 0.00 | 0.62 | 0.00 | 95 | 1016.6 |
| 20260901052331 | 75 | 138 | 0.0 | 0.0 | 0.00 | 0.62 | 0.00 | 95 | 1016.7 |
| 20260901051839 | 75 | 138 | 0.0 | 0.0 | 0.00 | 0.62 | 0.00 | 95 | 1016.6 |
| 20260901051404 | 75 | 138 | 0.0 | 0.0 | 0.00 | 0.62 | 0.00 | 95 | 1016.5 |
| 20260901050847 | 75 | 138 | 0.0 | 0.0 | 0.00 | 0.62 | 0.00 | 95 | 1016.5 |
| 20260901050329 | 75 | 138 | 0.0 | 0.0 | 0.00 | 0.62 | 0.00 | 95 | 1016.4 |
| 20260901045836 | 75 | 138 | 0.0 | 0.0 | 0.00 | 0.62 | 0.00 | 95 | 1016.4 |
| 20260901045343 | 75 | 138 | 0.0 | 0.0 | 0.00 | 0.62 | 0.00 | 95 | 1016.4 |
| 20260901044827 | 75 | 138 | 0.0 | 0.0 | 0.00 | 0.62 | 0.00 | 95 | 1016.4 |
| 20260901044332 | 75 | 138 | 0.0 | 1.0 | 0.00 | 0.62 | 0.00 | 95 | 1016.4 |
| 20260901043856 | 75 | 138 | 0.0 | 1.0 | 0.00 | 0.62 | 0.00 | 95 | 1016.2 |
| 20260901043400 | 75 | 138 | 0.0 | 1.0 | 0.00 | 0.62 | 0.00 | 95 | 1016.2 |
| 20260901042844 | 75 | 138 | 0.0 | 0.0 | 0.00 | 0.62 | 0.00 | 95 | 1016.2 |
| 20260901042327 | 75 | 138 | 0.0 | 0.0 | 0.00 | 0.62 | 0.00 | 95 | 1016.5 |
| 20260901041835 | 75 | 138 | 0.0 | 0.0 | 0.00 | 0.62 | 0.00 | 95 | 1016.5 |
| 20260901041343 | 75 | 138 | 0.0 | 0.0 | 0.00 | 0.62 | 0.00 | 95 | 1016.5 |
| 20260901040828 | 75 | 138 | 0.0 | 0.0 | 0.00 | 0.62 | 0.00 | 95 | 1016.5 |
| 20260901040332 | 74 | 138 | 0.0 | 0.0 | 0.00 | 0.62 | 0.00 | 95 | 1016.6 |
| 20260901035856 | 74 | 138 | 0.0 | 1.0 | 0.00 | 0.62 | 0.00 | 95 | 1016.7 |
| 20260901035337 | 74 | 138 | 0.0 | 0.0 | 0.00 | 0.62 | 0.62 | 95 | 1016.7 |
| 20260901034845 | 74 | 138 | 0.0 | 0.0 | 0.00 | 0.62 | 0.62 | 95 | 1016.8 |
| 20260901034329 | 74 | 138 | 0.0 | 0.0 | 0.00 | 0.62 | 0.62 | 95 | 1016.9 |
| 20260901033833 | 74 | 138 | 0.0 | 0.0 | 0.00 | 0.62 | 0.62 | 95 | 1016.9 |
| 20260901033338 | 74 | 138 | 0.0 | 0.0 | 0.00 | 0.62 | 0.62 | 95 | 1016.8 |
| 20260901032843 | 74 | 138 | 0.0 | 0.0 | 0.00 | 0.62 | 0.62 | 95 | 1016.8 |
| 20260901032326 | 74 | 138 | 0.0 | 0.0 | 0.00 | 0.62 | 0.62 | 95 | 1016.9 |
| 20260901031835 | 74 | 138 | 0.0 | 0.0 | 0.00 | 0.62 | 0.62 | 95 | 1017.0 |
| 20260901031358 | 74 | 138 | 0.0 | 0.0 | 0.00 | 0.62 | 0.62 | 95 | 1017.0 |
| 20260901030825 | 74 | 138 | 0.0 | 0.0 | 0.00 | 0.62 | 0.62 | 95 | 1017.1 |
| 20260901030329 | 74 | 138 | 0.0 | 0.0 | 0.00 | 0.62 | 0.62 | 95 | 1017.1 |
| 20260901025854 | 74 | 138 | 0.0 | 0.0 | 0.00 | 0.62 | 0.62 | 95 | 1017.0 |
| 20260901025335 | 74 | 138 | 0.0 | 0.0 | 0.00 | 0.62 | 0.62 | 95 | 1017.1 |
| 20260901024822 | 74 | 138 | 0.0 | 0.0 | 0.00 | 0.62 | 0.62 | 95 | 1017.1 |
| 20260901024328 | 74 | 138 | 0.0 | 1.0 | 0.00 | 0.62 | 0.62 | 95 | 1017.2 |
| 20260901023856 | 73 | 138 | 0.0 | 1.0 | 0.00 | 0.62 | 0.62 | 95 | 1017.2 |
| 20260901023340 | 73 | 138 | 0.0 | 1.0 | 0.00 | 0.62 | 0.62 | 95 | 1017.2 |
| 20260901022823 | 73 | 138 | 0.0 | 0.0 | 0.00 | 0.62 | 0.62 | 95 | 1017.2 |
| 20260901022330 | 73 | 138 | 0.0 | 0.0 | 0.00 | 0.62 | 0.62 | 94 | 1017.3 |
| 20260901021835 | 73 | 138 | 0.0 | 1.0 | 0.00 | 0.62 | 0.62 | 94 | 1017.3 |
| 20260901021343 | 73 | 138 | 0.0 | 1.0 | 0.00 | 0.62 | 0.62 | 94 | 1017.3 |
| 20260901020827 | 73 | 138 | 0.0 | 1.0 | 0.00 | 0.62 | 0.62 | 94 | 1017.4 |
| 20260901020331 | 73 | 138 | 0.0 | 1.0 | 0.00 | 0.62 | 0.62 | 94 | 1017.2 |
| 20260901015837 | 73 | 138 | 0.0 | 1.0 | 0.00 | 0.62 | 0.62 | 94 | 1017.3 |
| 20260901015324 | 73 | 138 | 0.0 | 1.0 | 0.00 | 0.62 | 0.62 | 94 | 1017.3 |
| 20260901014829 | 73 | 138 | 0.0 | 1.0 | 0.00 | 0.62 | 0.62 | 94 | 1017.3 |
| 20260901014333 | 73 | 138 | 1.0 | 1.0 | 0.00 | 0.62 | 0.62 | 94 | 1017.2 |
| 20260901013838 | 73 | 138 | 0.0 | 0.0 | 0.00 | 0.62 | 0.62 | 94 | 1017.2 |
| 20260901013342 | 73 | 138 | 0.0 | 0.0 | 0.00 | 0.62 | 0.62 | 94 | 1017.0 |
| 20260901012827 | 73 | 138 | 0.0 | 1.0 | 0.00 | 0.62 | 0.62 | 94 | 1017.1 |
| 20260901012335 | 73 | 138 | 0.0 | 1.0 | 0.00 | 0.62 | 0.62 | 94 | 1017.0 |
| 20260901011839 | 73 | 138 | 0.0 | 1.0 | 0.00 | 0.62 | 0.62 | 94 | 1016.8 |
| 20260901011404 | 73 | 138 | 0.0 | 0.0 | 0.00 | 0.62 | 0.62 | 94 | 1016.8 |
| 20260901010827 | 73 | 138 | 0.0 | 0.0 | 0.00 | 0.62 | 0.62 | 94 | 1016.8 |
| 20260901010332 | 73 | 138 | 0.0 | 0.0 | 0.00 | 0.62 | 0.62 | 94 | 1016.9 |
| 20260901005836 | 73 | 138 | 0.0 | 0.0 | 0.00 | 0.62 | 0.62 | 94 | 1016.7 |
| 20260901005339 | 73 | 138 | 0.0 | 2.0 | 0.00 | 0.62 | 0.62 | 94 | 1016.6 |
| 20260901004827 | 73 | 138 | 0.0 | 2.0 | 0.00 | 0.62 | 0.62 | 93 | 1016.4 |
| 20260901004331 | 73 | 138 | 0.0 | 1.0 | 0.00 | 0.62 | 0.62 | 94 | 1016.4 |
| 20260901003854 | 73 | 138 | 0.0 | 0.0 | 0.00 | 0.62 | 0.62 | 94 | 1016.4 |
| 20260901003341 | 73 | 138 | 0.0 | 0.0 | 0.00 | 0.62 | 0.62 | 93 | 1016.4 |
| 20260901002826 | 73 | 138 | 0.0 | 1.0 | 0.00 | 0.62 | 0.62 | 93 | 1016.5 |
| 20260901002349 | 73 | 138 | 0.0 | 1.0 | 0.00 | 0.62 | 0.62 | 93 | 1016.5 |
| 20260901001837 | 73 | 138 | 0.0 | 1.0 | 0.00 | 0.62 | 0.62 | 93 | 1016.4 |
| 20260901001321 | 72 | 138 | 0.0 | 2.0 | 0.00 | 0.62 | 0.62 | 93 | 1016.5 |
| 20260901000829 | 72 | 138 | 0.0 | 2.0 | 0.00 | 0.62 | 0.62 | 93 | 1016.5 |
| 20260901000335 | 72 | 138 | 0.0 | 0.0 | 0.00 | 0.62 | 0.62 | 92 | 1016.5 |
| 20260831235838 | 72 | 138 | 0.0 | 3.0 | 0.02 | 0.62 | 0.62 | 92 | 1016.5 |
| 20260831235342 | 72 | 138 | 1.0 | 3.0 | 0.16 | 0.62 | 0.62 | 92 | 1016.4 |
| 20260831234846 | 73 | 138 | 0.0 | 1.0 | 0.39 | 0.62 | 0.62 | 92 | 1016.4 |
| 20260831234330 | 72 | 138 | 0.0 | 1.0 | 0.58 | 0.62 | 0.62 | 92 | 1016.6 |
| 20260831233854 | 72 | 138 | 0.0 | 1.0 | 0.62 | 0.62 | 0.62 | 91 | 1016.6 |
| 20260831233358 | 72 | 138 | 0.0 | 2.0 | 0.62 | 0.62 | 0.62 | 91 | 1016.6 |
| 20260831232902 | 72 | 138 | 0.0 | 2.0 | 0.62 | 0.62 | 0.62 | 90 | 1016.4 |
| 20260831232324 | 72 | 138 | 0.0 | 2.0 | 0.62 | 0.62 | 0.62 | 90 | 1016.5 |
| 20260831231849 | 72 | 138 | 1.0 | 2.0 | 0.62 | 0.62 | 0.62 | 89 | 1016.5 |
| 20260831231333 | 73 | 138 | 1.0 | 2.0 | 0.62 | 0.62 | 0.62 | 88 | 1016.6 |
| 20260831230837 | 73 | 138 | 1.0 | 5.0 | 0.62 | 0.62 | 0.62 | 87 | 1016.5 |
| 20260831230326 | 74 | 138 | 2.0 | 7.0 | 0.62 | 0.62 | 0.62 | 88 | 1016.6 |
| 20260831225829 | 74 | 62 | 3.0 | 12.0 | 0.60 | 0.60 | 0.60 | 88 | 1016.7 |
| 20260831225352 | 75 | 69 | 6.0 | 18.0 | 0.48 | 0.48 | 0.48 | 90 | 1017.6 |
| 20260831224839 | 74 | 348 | 11.0 | 18.0 | 0.25 | 0.23 | 0.25 | 88 | 1017.7 |
| 20260831224404 | 76 | 315 | 13.0 | 17.0 | 0.05 | 0.05 | 0.05 | 81 | 1017.4 |
| 20260831223828 | 80 | 333 | 9.0 | 17.0 | 0.00 | 0.00 | 0.00 | 72 | 1017.3 |
| 20260831223332 | 84 | 257 | 4.0 | 5.0 | 0.00 | 0.00 | 0.00 | 78 | 1017.3 |
| 20260831222836 | 84 | 174 | 1.0 | 5.0 | 0.00 | 0.00 | 0.00 | 77 | 1016.7 |
| 20260831222343 | 85 | 207 | 3.0 | 6.0 | 0.00 | 0.00 | 0.00 | 76 | 1016.7 |
| 20260831221828 | 85 | 186 | 1.0 | 6.0 | 0.00 | 0.00 | 0.00 | 75 | 1016.8 |
| 20260831221332 | 85 | 191 | 3.0 | 5.0 | 0.00 | 0.00 | 0.00 | 76 | 1016.9 |
| 20260831220837 | 85 | 208 | 3.0 | 4.0 | 0.00 | 0.00 | 0.00 | 76 | 1016.9 |
| 20260831220324 | 85 | 191 | 2.0 | 4.0 | 0.00 | 0.00 | 0.00 | 75 | 1016.9 |
| 20260831215832 | 85 | 153 | 1.0 | 4.0 | 0.00 | 0.00 | 0.00 | 76 | 1017.0 |
| 20260831215335 | 85 | 118 | 2.0 | 4.0 | 0.00 | 0.00 | 0.00 | 76 | 1016.9 |
| 20260831214840 | 85 | 178 | 2.0 | 3.0 | 0.00 | 0.00 | 0.00 | 75 | 1017.0 |
| 20260831214325 | 85 | 223 | 0.0 | 3.0 | 0.00 | 0.00 | 0.00 | 75 | 1016.9 |
| 20260831213829 | 85 | 224 | 0.0 | 2.0 | 0.00 | 0.00 | 0.00 | 75 | 1017.1 |
| 20260831213334 | 85 | 224 | 1.0 | 4.0 | 0.00 | 0.00 | 0.00 | 75 | 1017.1 |
| 20260831212839 | 86 | 224 | 2.0 | 4.0 | 0.00 | 0.00 | 0.00 | 73 | 1017.2 |
| 20260831212342 | 86 | 200 | 1.0 | 4.0 | 0.00 | 0.00 | 0.00 | 72 | 1017.2 |
| 20260831211826 | 87 | 94 | 1.0 | 4.0 | 0.00 | 0.00 | 0.00 | 73 | 1017.3 |
| 20260831211351 | 86 | 194 | 1.0 | 3.0 | 0.00 | 0.00 | 0.00 | 75 | 1017.3 |
| 20260831210839 | 85 | 194 | 1.0 | 5.0 | 0.00 | 0.00 | 0.00 | 74 | 1017.3 |
| 20260831210322 | 85 | 194 | 2.0 | 5.0 | 0.00 | 0.00 | 0.00 | 74 | 1017.3 |
| 20260831205828 | 85 | 196 | 2.0 | 5.0 | 0.00 | 0.00 | 0.00 | 74 | 1017.3 |
| 20260831205335 | 85 | 196 | 3.0 | 5.0 | 0.00 | 0.00 | 0.00 | 74 | 1017.2 |
| 20260831204840 | 85 | 191 | 3.0 | 5.0 | 0.00 | 0.00 | 0.00 | 75 | 1017.2 |
| 20260831204325 | 85 | 192 | 2.0 | 5.0 | 0.00 | 0.00 | 0.00 | 76 | 1017.4 |
| 20260831203829 | 85 | 180 | 2.0 | 3.0 | 0.00 | 0.00 | 0.00 | 76 | 1017.4 |
| 20260831203354 | 85 | 192 | 1.0 | 6.0 | 0.00 | 0.00 | 0.00 | 76 | 1017.5 |
| 20260831202857 | 84 | 239 | 3.0 | 6.0 | 0.00 | 0.00 | 0.00 | 76 | 1017.6 |
| 20260831202338 | 84 | 200 | 2.0 | 3.0 | 0.00 | 0.00 | 0.00 | 77 | 1017.6 |
| 20260831201846 | 84 | 200 | 2.0 | 4.0 | 0.00 | 0.00 | 0.00 | 77 | 1017.6 |
| 20260831201333 | 84 | 200 | 2.0 | 4.0 | 0.00 | 0.00 | 0.00 | 77 | 1017.7 |
| 20260831200821 | 84 | 200 | 2.0 | 3.0 | 0.00 | 0.00 | 0.00 | 75 | 1017.7 |
| 20260831200329 | 84 | 200 | 1.0 | 4.0 | 0.00 | 0.00 | 0.00 | 75 | 1017.7 |
| 20260831195834 | 84 | 200 | 2.0 | 4.0 | 0.00 | 0.00 | 0.00 | 74 | 1017.7 |
| 20260831195337 | 84 | 200 | 1.0 | 3.0 | 0.00 | 0.00 | 0.00 | 76 | 1017.7 |
| 20260831194901 | 84 | 200 | 1.0 | 4.0 | 0.00 | 0.00 | 0.00 | 74 | 1017.6 |
| 20260831194347 | 85 | 200 | 1.0 | 3.0 | 0.00 | 0.12 | 0.00 | 75 | 1017.7 |
| 20260831193831 | 85 | 200 | 1.0 | 2.0 | 0.00 | 0.12 | 0.00 | 74 | 1017.8 |
| 20260831193334 | 85 | 200 | 0.0 | 2.0 | 0.00 | 0.12 | 0.00 | 74 | 1017.9 |
| 20260831192842 | 85 | 200 | 1.0 | 2.0 | 0.00 | 0.12 | 0.00 | 74 | 1017.9 |
| 20260831192345 | 85 | 200 | 1.0 | 2.0 | 0.00 | 0.12 | 0.00 | 74 | 1017.9 |
| 20260831191829 | 85 | 200 | 0.0 | 2.0 | 0.00 | 0.12 | 0.00 | 75 | 1017.9 |
| 20260831191334 | 85 | 200 | 0.0 | 3.0 | 0.00 | 0.12 | 0.00 | 74 | 1017.9 |
| 20260831190838 | 85 | 200 | 1.0 | 3.0 | 0.00 | 0.12 | 0.00 | 74 | 1018.0 |